Sheringham Point, British Columbia

10:08 PM PDT on April 23, 2017 (GMT -0700)
Sheringham Point

Weather History for CWSP - February, 2013

Change the Weather History Date:

Monday, February 18, 2013

  Actual Average Record
Temperature  
Mean Temperature 42 °F -  
Max Temperature 44 °F - - ()
Min Temperature 39 °F - - ()
Degree Days  
Heating Degree Days 24    
Moisture  
Dew Point 36 °F    
Average Humidity 80    
Maximum Humidity 88    
Minimum Humidity 63    
Precipitation  
Precipitation 0.00 in - - ()
Sea Level Pressure  
Sea Level Pressure 29.88 in    
Wind  
Wind Speed 15 mph ()    
Max Wind Speed 39 mph    
Max Gust Speed -    
T = Trace of Precipitation, MM = Missing Value Source: Averaged Metar Reports

Daily Weather History Graph

Daily Weather History Graph

Search for Another Location

Airport or City:

Trip Planner

Search our weather history database for the weather conditions in past years. The results will help you decide how hot, cold, wet, or windy it might be!

Date:

Astronomy

Feb. 18, 2013 Rise Set
Actual Time 7:16 AM PST 5:42 PM PST
Civil Twilight 6:44 AM PST 6:14 PM PST
Nautical Twilight 6:08 AM PST 6:51 PM PST
Astronomical Twilight 5:32 AM PST 7:27 PM PST
Moon 11:18 AM PST (2/18) 2:15 AM PST (2/18)
Length of Visible Light 11h 30m
Length of Day
10h 26m
First Quarter, 59% of the Moon is Illuminated
Feb 18
First Quarter
Feb 25
Full
Mar 4
Last Quarter
Mar 11
New
Mar 19
First Quarter

Hourly Weather History & Observations

Time (PST) Temp. Windchill Dew Point Humidity Pressure Visibility Wind Dir Wind Speed Gust Speed Precip Events Conditions
12:00 AM 40.3 °F 36.3 °F 35.6 °F 83% 30.09 in - North 5.8 mph - N/A   Unknown
1:00 AM 40.8 °F 37.8 °F 35.8 °F 82% 30.08 in - North 4.6 mph - N/A   Unknown
2:00 AM 40.3 °F 28.3 °F 36.3 °F 86% 30.06 in - North 33.4 mph - N/A   Unknown
3:00 AM 40.3 °F 28.3 °F 36.5 °F 86% 30.04 in - North 33.4 mph - N/A   Unknown
4:00 AM 40 °F - 36 °F 82% 30.02 in - Calm Calm - -  
4:00 AM 40.5 °F 28.7 °F 36.3 °F 85% 30.02 in - North 32.2 mph - N/A   Unknown
5:00 AM 40.8 °F 29.0 °F 36.7 °F 85% 30.00 in - North 33.4 mph - N/A   Unknown
6:00 AM 40.6 °F 28.0 °F 36.9 °F 86% 29.98 in - North 39.1 mph - N/A   Unknown
7:00 AM 40.3 °F 28.3 °F 36.7 °F 87% 29.97 in - North 33.4 mph - N/A   Unknown
8:00 AM 40.1 °F 36.1 °F 36.9 °F 88% 29.96 in - North 5.8 mph - N/A   Unknown
9:00 AM 40.5 °F 35.1 °F 36.9 °F 87% 29.95 in - North 8.1 mph - N/A   Unknown
10:00 AM 41 °F - 37 °F 81% 29.93 in - Calm Calm - -  
10:00 AM 41.0 °F 36.4 °F 37.2 °F 86% 29.93 in - North 6.9 mph - N/A   Unknown
11:00 AM 41.5 °F 35.4 °F 37.2 °F 85% 29.91 in - North 10.4 mph - N/A   Unknown
12:00 PM 42.3 °F 35.5 °F 37.2 °F 82% 29.89 in - North 12.7 mph - N/A   Unknown
1:00 PM 42.4 °F 35.7 °F 36.9 °F 81% 29.87 in - North 12.7 mph - N/A   Unknown
2:00 PM 43.0 °F 35.4 °F 37.4 °F 81% 29.85 in - North 16.1 mph - N/A   Unknown
3:00 PM 44.1 °F 38.1 °F 34.9 °F 70% 29.83 in - North 11.5 mph - N/A   Unknown
4:00 PM 44 °F - 36 °F 63% 29.80 in - Calm Calm - -  
4:00 PM 44.4 °F 39.0 °F 35.6 °F 71% 29.80 in - North 10.4 mph - N/A   Unknown
5:00 PM 44.1 °F 38.6 °F 35.8 °F 73% 29.77 in - North 10.4 mph - N/A   Unknown
6:00 PM 43.0 °F 37.2 °F 36.3 °F 77% 29.75 in - North 10.4 mph - N/A   Unknown
7:00 PM 42.6 °F 37.2 °F 36.3 °F 78% 29.73 in - North 9.2 mph - N/A   Unknown
8:00 PM 42.8 °F 37.5 °F 36.3 °F 78% 29.72 in - North 9.2 mph - N/A   Unknown
9:00 PM 43.0 °F 36.8 °F 36.1 °F 77% 29.71 in - North 11.5 mph - N/A   Unknown
10:00 PM 44 °F - 36 °F 64% 29.70 in - Calm Calm - -  
10:00 PM 43.7 °F 37.3 °F 36.0 °F 74% 29.70 in - North 12.7 mph - N/A   Unknown
11:00 PM 43.2 °F 31.8 °F 37.0 °F 79% 29.71 in - North 36.8 mph - N/A   Unknown